Temp
11 10 10 9 9 9 9 8 8 8 7 7 6 6 5 5 5 4 4 4 4 3
11 11 10 10 9 9 8 8 8 7 7 6 6 5 5 5 4 4 4 4 3 3
12 11 10 10 9 9 9 8 8 7 7 6 6 5 5 5 4 4 3 3 3 3
12 11 11 10 9 9 8 8 8 7 7 6 6 5 4 4 4 4 3 3 3 2
12 11 10 10 10 9 8 8 7 7 6 6 5 5 5 4 4 3 3 3 2 2
12 11 11 11 10 9 8 8 7 7 6 6 5 5 4 4 4 3 3 3 2 2
11 11 10 10 10 9 8 7 7 7 6 6 5 4 4 4 3 3 3 2 2 2
11 10 10 10 9 9 8 8 7 6 6 5 5 5 4 3 3 3 2 2 2 1
9 9 10 10 9 8 8 7 7 6 6 5 5 5 4 3 2 2 2 1 1 1
8 8 9 9 8 8 8 7 6 6 6 5 5 4 4 2 2 2 1 1 1 1
7 7 7 7 7 7 7 6 6 6 6 5 5 4 3 2 1 1 1 1 0 0
5 5 6 6 6 6 6 6 5 5 5 5 5 4 3 2 1 1 0 -0 -0 0
4 4 4 5 5 5 5 5 5 4 4 4 4 4 3 2 1 -0 -1 -1 -0 0
4 4 4 3 4 4 4 4 3 3 3 3 3 3 2 2 0 -0 -1 -1 -2 -1
Height
815 814 813 813 813 812 811 810 809 808 806 805 804 804 803 801 800 800 799 799 799 799
810 809 809 809 809 808 808 807 806 805 804 804 803 802 801 800 800 799 799 798 796 794
804 803 803 803 802 802 802 802 802 801 801 800 800 799 799 798 797 796 796 796 797 797
798 798 798 798 798 797 797 797 796 796 795 794 794 795 795 795 795 794 794 793 793 793
792 792 792 792 792 792 792 793 793 793 793 792 791 791 790 790 790 790 791 791 791 791
787 786 786 786 786 787 787 787 788 788 789 789 790 789 788 787 787 786 786 786 786 786
784 783 782 782 781 781 782 782 783 783 784 785 786 786 786 785 784 784 785 786 786 787
780 778 778 777 776 776 776 776 777 778 778 779 780 780 781 782 782 783 782 783 783 784
776 775 774 773 772 771 770 770 770 770 770 771 772 773 776 779 780 780 781 781 782 783
774 772 770 769 768 766 764 764 764 764 764 764 764 765 767 771 774 775 775 777 780 781
775 771 769 766 764 762 761 759 758 758 758 760 760 763 765 766 766 770 772 772 773 775
773 769 766 763 760 758 755 754 751 751 751 753 754 756 759 763 764 766 767 770 770 771
772 768 764 760 758 755 752 749 748 746 746 747 749 752 754 757 758 761 764 765 767 767
768 764 760 757 754 751 747 744 743 742 742 742 744 746 750 753 753 756 758 760 762 764
Wind_Speed
19 19 19 18 17 16 15 13 12 11 11 10 9 8 8 7 6 5 4 4 4 3
22 22 23 21 19 18 16 15 13 12 11 10 10 9 9 7 6 5 5 4 3 3
25 24 24 22 22 20 18 17 16 14 12 11 10 9 8 7 6 5 4 4 3 3
26 26 24 25 24 23 21 20 19 17 15 13 12 10 9 8 7 7 6 6 5 4
22 24 25 26 25 24 24 22 21 19 18 15 14 12 11 10 10 10 10 8 8 6
20 22 24 26 25 24 24 24 22 21 21 18 16 15 14 13 12 13 14 13 12 10
21 22 23 24 25 25 24 24 24 23 22 20 18 17 16 16 15 14 14 14 13 11
22 19 20 21 22 22 24 25 24 23 23 22 21 21 20 19 16 15 15 14 13 13
20 18 18 19 20 20 22 24 25 26 26 25 24 24 20 18 16 15 15 14 13 12
20 17 17 17 19 21 21 22 26 28 28 29 27 25 20 18 17 14 14 13 13 13
20 19 18 19 20 22 21 22 24 28 30 30 29 25 21 18 18 14 12 13 14 13
22 22 22 22 22 22 22 22 23 26 28 30 30 26 22 20 19 15 12 11 15 14
22 21 22 22 24 24 24 23 23 23 24 27 28 25 21 22 23 18 16 14 15 14
24 25 24 23 24 24 23 22 21 21 22 22 23 22 20 22 22 21 18 18 14 14
Wind_Direction
267 265 265 265 264 265 268 276 280 286 296 301 303 304 312 311 305 306 295 290 297 322
266 262 262 263 263 265 268 273 275 279 287 291 293 296 304 303 297 301 282 289 253 226
265 263 263 260 258 260 263 262 264 269 274 279 281 282 286 286 269 271 263 264 261 259
270 265 263 261 261 260 261 259 258 259 258 260 261 262 266 270 259 254 240 233 233 236
276 268 263 261 264 262 261 261 260 259 257 257 257 252 251 250 243 242 238 234 230 237
285 274 268 265 266 265 260 258 257 256 256 258 258 256 253 250 244 240 237 232 228 227
299 286 283 280 274 269 263 261 258 257 258 258 258 257 253 247 247 246 243 242 243 241
314 299 293 291 285 277 267 263 260 257 255 255 253 254 251 249 252 251 246 244 243 243
325 307 299 301 299 289 276 264 255 252 250 249 250 254 251 249 253 255 253 250 247 252
341 323 310 307 304 296 286 274 260 255 251 249 249 248 242 231 240 241 241 245 254 259
342 336 324 313 308 304 295 284 273 263 258 253 253 249 241 222 225 233 241 240 245 250
339 333 326 319 315 311 303 291 281 273 265 256 251 248 237 217 218 225 236 254 253 251
340 333 325 321 317 310 305 298 291 282 275 267 256 247 233 213 212 220 244 242 256 256
341 337 332 323 318 313 306 300 293 285 278 270 256 245 222 206 219 223 233 237 243 255